[[{"header":{"parameterUnit":"m.s-1","parameterCategory":1,"la1":30.2991,"la2":30.254,"lo1":-89.0895,"lo2":-89.0444,"dy":0.0017,"dx":0.0017,"nx":28,"ny":28,"refTime":"2024-11-22T03:00:00:Z","depth":0,"parameterNumber":2,"parameterNumberName":"U-component_of_WINDS"},"data":[0,0,0,0,0,0,0,0,0,0,0,0,0,0,0,0,0,0,0,0,0,0,0,0,0,0,0,0,0,0,0,0,0,0,0,0,0,0,0,0,0,0,0,0,0,0,0,0,0,0,0,0,0,0,0,0,0,0,-1.8594,-1.8595,0,-1.8686,-1.8687,-1.8688,-1.8601,-1.8598,-1.8594,-1.8591,-1.8689,-1.8694,-1.87,0,0,0,0,0,0,0,0,0,0,0,0,0,-1.8344,-1.8349,-1.8593,-1.8595,-1.8596,-1.8686,-1.8687,-1.8688,-1.8602,-1.8598,-1.8593,-1.8589,-1.8687,-1.8694,-1.8701,0,0,0,0,0,0,0,0,0,0,0,0,0,-1.8446,-1.835,-1.8593,-1.8563,-1.8562,-1.8685,-1.8687,-1.8688,-1.8603,-1.8598,-1.8592,-1.8587,-1.8684,-1.8693,-1.8702,-1.886,0,0,-1.8728,-1.8732,0,0,0,0,0,0,0,0,-1.844,-1.8455,-1.8567,-1.8566,-1.8564,-1.8627,-1.8634,-1.8746,-1.8604,-1.8587,-1.8591,-1.8585,-1.8672,-1.8682,-1.8711,-1.8865,-1.8869,-1.8729,-1.8734,-1.8738,-1.8741,0,0,0,0,0,0,0,-1.8433,-1.8451,-1.863,-1.8568,-1.8567,-1.8546,-1.8555,-1.8655,-1.8658,-1.8588,-1.8582,-1.8594,-1.8671,-1.8702,-1.8712,-1.887,-1.8729,-1.8737,-1.8742,-1.8745,-1.9157,-1.9163,0,0,0,0,0,0,-1.8429,-1.8445,-1.8627,-1.8633,-1.8488,-1.8555,-1.8564,-1.8612,-1.8657,-1.8659,-1.8599,-1.859,-1.869,-1.8702,-1.8715,-1.8904,-1.8738,-1.8746,-1.8751,-1.9152,-1.9159,-1.9165,0,0,0,0,0,0,-1.8424,-1.8446,-1.8623,-1.8537,-1.8558,-1.8564,-1.8618,-1.8616,-1.8648,-1.8664,-1.8665,-1.8631,-1.8686,-1.8703,-1.8824,-1.8906,-1.875,-1.8758,-1.9145,-1.9154,-1.9162,-1.9282,0,0,0,0,0,0,-1.8417,-1.8445,-1.8505,-1.8539,-1.8563,-1.8731,-1.8623,-1.8622,-1.8663,-1.8653,-1.8694,-1.8696,-1.8684,-1.8812,-1.8833,-1.8915,-1.8765,-1.9138,-1.9149,-1.9159,-1.9271,-1.9293,-1.9313,0,0,0,0,0,-1.8409,-1.8536,-1.8509,-1.8531,-1.8639,-1.8736,-1.8749,-1.8731,-1.867,-1.8731,-1.8741,-1.8695,-1.8893,-1.8825,-1.8848,-1.8934,-1.9133,-1.9146,-1.9158,-1.9261,-1.9289,-1.9312,0,0,0,0,0,0,-1.8513,-1.854,-1.851,-1.8652,-1.8692,-1.8721,-1.8797,-1.8761,-1.882,-1.8808,-1.8784,-1.8794,-1.8922,-1.894,-1.8863,-1.9089,-1.9003,-1.9021,-1.9073,-1.91,-1.912,-1.9114,-1.8772,0,0,0,0,0,-1.8552,-1.8628,-1.8648,-1.8772,-1.8793,-1.8792,-1.8833,-1.8816,-1.8856,-1.8873,-1.8892,-1.8934,-1.9005,-1.9053,-1.912,-1.9272,-1.928,-1.9342,-1.9363,-1.938,-1.9397,-1.9478,-1.9506,-1.9207,-1.9207,-1.9206,0,0,-1.8635,-1.8659,-1.8709,-1.8793,-1.8822,-1.8902,-1.8807,-1.8895,-1.8954,-1.8887,-1.9002,-1.9017,-1.9062,-1.9199,-1.9261,-1.9218,-1.9481,-1.9397,-1.941,-1.9418,-1.9494,-1.9522,-1.9547,-1.9216,-1.9214,-1.9213,0,0,-1.8827,-1.8852,-1.8958,-1.8988,-1.9032,-1.903,-1.9055,-1.9089,-1.9096,-1.9211,-1.9162,-1.9231,-1.9355,-1.9388,-1.9422,-1.9623,-1.9583,-1.9645,-1.9757,-1.9836,-1.9859,-1.988,-1.9952,-1.9978,-1.9661,-1.9662,-1.9662,0,-1.8925,-1.9042,-1.9017,-1.9109,-1.9147,-1.9087,-1.9194,-1.9225,-1.9289,-1.9317,-1.9268,-1.942,-1.9447,-1.959,-1.9639,-1.9668,-1.9696,-1.9642,-1.9857,-1.9878,-1.9897,-1.9966,-1.9993,-1.9669,-1.9668,-1.9667,-1.9667,0,-1.916,-1.9242,-1.9321,-1.9383,-1.943,-1.9529,-1.952,-1.957,-1.9547,-1.955,-1.9668,-1.9696,-1.9767,-1.9799,-1.9779,-1.994,-1.9912,-1.9861,-1.9774,-1.9933,-1.9997,-2.0023,-1.9679,-1.9677,-1.9675,-1.9673,0,0,-1.9423,-1.9467,-1.9497,-1.9524,-1.9567,-1.963,-1.9725,-1.9793,-1.9837,-1.9882,-1.9962,-2.0067,-2.0018,-2.0056,-2.0039,-2.0108,-2.0265,-2.0048,-2.0048,-2.0088,-2.0444,-2.0484,-2.0514,-2.0238,-2.0243,-2.0247,-2.0441,0,-1.9616,-1.9781,-1.976,-1.9919,-1.9994,-1.9937,-2.002,-2.0056,-2.006,-2.0125,-2.013,-2.0204,-2.0135,-2.0157,-2.0223,-2.0232,-2.0337,-2.0218,-2.0312,-2.0316,-2.0304,-2.0548,-2.059,-2.0772,-2.0465,-2.047,-2.0473,0,-1.9864,-1.9917,-2.0083,-2.0112,-2.0143,-2.0218,-2.0278,-2.034,-2.0378,-2.0376,-2.0418,-2.0387,-2.0482,-2.0392,-2.0523,-2.0443,-2.0479,-2.0489,-2.0496,-2.0506,-2.0405,-2.0565,-2.0829,-2.0857,-2.0512,-2.0508,-2.0506,0,-2.004,-2.0152,-2.0266,-2.029,-2.0327,-2.0381,-2.04,-2.0432,-2.0474,-2.0526,-2.0553,-2.0615,-2.065,-2.07,-2.0686,-2.0622,-2.0821,-2.0729,-2.0822,-2.0823,-2.0869,-2.0866,-2.1144,-2.0891,-2.089,-2.089,-2.0889,0,-2.0259,-2.0363,-2.0345,-2.0415,-2.0529,-2.0503,-2.0617,-2.0628,-2.0658,-2.0729,-2.0683,-2.0751,-2.0728,-2.0795,-2.0785,-2.0895,-2.0911,-2.0912,-2.0909,-2.0918,-2.0917,-2.0943,-2.093,-2.0897,-2.0895,-2.0894,-2.0893,0,-2.0476,-2.0468,-2.0588,-2.0612,-2.062,-2.0704,-2.0725,-2.079,-2.079,-2.088,-2.09,-2.09,-2.0976,-2.0966,-2.1051,-2.1044,-2.1181,-2.1162,-2.1168,-2.1164,-2.1258,-2.125,-2.1563,-2.1603,-2.1323,-2.1326,-2.1328,0,-2.0617,-2.0695,-2.0727,-2.0771,-2.0792,-2.0863,-2.0905,-2.0882,-2.0927,-2.0975,-2.1035,-2.1106,-2.1162,-2.1285,-2.1293,-2.1357,-2.134,-2.1445,-2.1349,-2.1355,-2.1342,-2.1338,-2.1345,-2.1465,-2.1468,-2.147,-2.1472,0,-2.0868,-2.0859,-2.0921,-2.098,-2.1031,-2.1077,-2.1118,-2.1157,-2.1138,-2.1191,-2.1267,-2.131,-2.1395,-2.1466,-2.1526,-2.1545,-2.1506,-2.1502,-2.1527,-2.1537,-2.1538,-2.1539,-2.1221,-2.1496,-2.1493,-2.1492,-2.149,-2.1489,-2.1052,-2.1118,-2.115,-2.122,-2.1248,-2.1287,-2.135,-2.1356,-2.1419,-2.1486,-2.1468,-2.1554,-2.1588,-2.1665,-2.1689,-2.1756,-2.1718,-2.1754,-2.1763,-2.1773,-2.1784,-2.1526,-2.1767,-2.1766,-2.1765,-2.1765,-2.1764,0,-2.1301,-2.1318,-2.1382,-2.144,-2.1495,-2.1451,-2.1494,-2.1543,-2.1619,-2.1653,-2.1708,-2.1795,-2.1863,-2.1875,-2.194,-2.1991,-2.1974,-2.2008,-2.2005,-2.201,-2.1815,-2.1787,-2.202,-2.202,-2.202,-2.202,-2.202,-2.202,-2.1437,-2.1547,-2.1542,-2.1664,-2.1681,-2.1764,-2.1792,-2.1828,-2.1855,-2.1954,-2.201,-2.2016,-2.2042,-2.2107,-2.2167,-2.2169,-2.2195,-2.2237,-2.2232,-2.2049,-2.2024,-2.2,-2.1973,-2.2242,-2.2243,-2.2421,-2.2423,-2.2424]},{"header":{"parameterUnit":"m.s-1","parameterCategory":1,"la1":30.2991,"la2":30.254,"lo1":-89.0895,"lo2":-89.0444,"dy":0.0017,"dx":0.0017,"nx":28,"ny":28,"refTime":"2024-11-22T03:00:00:Z","depth":0,"parameterNumber":3,"parameterNumberName":"V-component_of_WINDS"},"data":[0,0,0,0,0,0,0,0,0,0,0,0,0,0,0,0,0,0,0,0,0,0,0,0,0,0,0,0,0,0,0,0,0,0,0,0,0,0,0,0,0,0,0,0,0,0,0,0,0,0,0,0,0,0,0,0,0,0,-4.6733,-4.6734,0,-4.6853,-4.6854,-4.6856,-4.6799,-4.6796,-4.6793,-4.679,-4.691,-4.6916,-4.6922,0,0,0,0,0,0,0,0,0,0,0,0,0,-4.6451,-4.6456,-4.6733,-4.6734,-4.6736,-4.6853,-4.6854,-4.6856,-4.68,-4.6796,-4.6792,-4.6789,-4.6908,-4.6915,-4.6922,0,0,0,0,0,0,0,0,0,0,0,0,0,-4.6572,-4.6458,-4.6733,-4.6722,-4.6722,-4.6852,-4.6854,-4.6856,-4.68,-4.6796,-4.6791,-4.6787,-4.6906,-4.6914,-4.6923,-4.707,0,0,-4.6951,-4.6955,0,0,0,0,0,0,0,0,-4.6565,-4.6583,-4.6722,-4.6723,-4.6723,-4.6806,-4.6799,-4.6928,-4.6802,-4.6771,-4.679,-4.6785,-4.6879,-4.689,-4.6922,-4.7076,-4.7081,-4.6952,-4.6957,-4.6961,-4.6964,0,0,0,0,0,0,0,-4.6557,-4.6577,-4.678,-4.6724,-4.6725,-4.671,-4.6722,-4.6823,-4.6849,-4.6773,-4.6769,-4.6784,-4.6879,-4.6914,-4.6925,-4.7083,-4.6952,-4.696,-4.6965,-4.6969,-4.7359,-4.7364,0,0,0,0,0,0,-4.6549,-4.657,-4.6776,-4.6784,-4.6632,-4.6718,-4.6732,-4.6784,-4.6848,-4.6853,-4.6788,-4.6781,-4.6901,-4.6914,-4.6929,-4.7103,-4.6961,-4.697,-4.6975,-4.7354,-4.736,-4.7365,0,0,0,0,0,0,-4.6544,-4.6568,-4.6772,-4.6676,-4.6701,-4.6728,-4.6787,-4.6789,-4.6824,-4.6859,-4.6863,-4.682,-4.6898,-4.6916,-4.7035,-4.7106,-4.6974,-4.6982,-4.7348,-4.7356,-4.7363,-4.7453,0,0,0,0,0,0,-4.6536,-4.6567,-4.6624,-4.6678,-4.6706,-4.6878,-4.6792,-4.6795,-4.684,-4.6833,-4.689,-4.6895,-4.6895,-4.7022,-4.7044,-4.7116,-4.6989,-4.7342,-4.7352,-4.736,-4.7444,-4.7462,-4.7478,0,0,0,0,0,-4.6526,-4.6645,-4.6627,-4.6652,-4.6779,-4.6882,-4.6898,-4.6897,-4.6847,-4.6903,-4.6925,-4.6893,-4.7095,-4.7034,-4.7059,-4.7135,-4.7337,-4.7349,-4.736,-4.7436,-4.7459,-4.7478,0,0,0,0,0,0,-4.6598,-4.6652,-4.6633,-4.6773,-4.6823,-4.6872,-4.6944,-4.6922,-4.6987,-4.6977,-4.6972,-4.6985,-4.7108,-4.7133,-4.7065,-4.7278,-4.7208,-4.7225,-4.7257,-4.728,-4.7297,-4.7287,-4.6996,0,0,0,0,0,-4.663,-4.6711,-4.6753,-4.6872,-4.6898,-4.6917,-4.6962,-4.6957,-4.7008,-4.7029,-4.706,-4.711,-4.7184,-4.7233,-4.7304,-4.7447,-4.7457,-4.7511,-4.7528,-4.7543,-4.7557,-4.7631,-4.7655,-4.7402,-4.7402,-4.7402,0,0,-4.6697,-4.6737,-4.6788,-4.6887,-4.6926,-4.7007,-4.6935,-4.7025,-4.7085,-4.7042,-4.7156,-4.718,-4.7236,-4.7367,-4.7426,-4.7391,-4.7629,-4.7557,-4.7568,-4.7574,-4.7645,-4.7669,-4.769,-4.741,-4.7408,-4.7407,0,0,-4.6861,-4.69,-4.7003,-4.7043,-4.7102,-4.7113,-4.7137,-4.719,-4.7204,-4.7318,-4.7287,-4.7357,-4.7487,-4.7526,-4.7564,-4.7741,-4.7712,-4.7764,-4.7854,-4.7927,-4.7947,-4.7965,-4.8026,-4.8048,-4.7778,-4.7778,-4.7778,0,-4.6937,-4.7061,-4.7058,-4.715,-4.7194,-4.7159,-4.7261,-4.73,-4.7379,-4.7409,-4.7369,-4.7529,-4.7564,-4.7702,-4.7745,-4.7778,-4.7803,-4.7757,-4.7945,-4.7962,-4.7979,-4.8036,-4.806,-4.7784,-4.7783,-4.7782,-4.7782,0,-4.715,-4.7235,-4.7311,-4.7388,-4.744,-4.7537,-4.7547,-4.76,-4.759,-4.7605,-4.772,-4.7761,-4.7837,-4.787,-4.7861,-4.8007,-4.7983,-4.7945,-4.7874,-4.8008,-4.8063,-4.8085,-4.7792,-4.779,-4.7788,-4.7787,0,0,-4.7363,-4.7437,-4.7464,-4.7497,-4.7559,-4.7624,-4.7718,-4.7794,-4.7838,-4.7894,-4.7971,-4.808,-4.8044,-4.8086,-4.8081,-4.8145,-4.8279,-4.8098,-4.8099,-4.8129,-4.8439,-4.8467,-4.8493,-4.8262,-4.8266,-4.8269,-4.8434,0,-4.753,-4.7696,-4.7695,-4.7848,-4.7925,-4.7892,-4.7974,-4.8019,-4.8035,-4.8102,-4.8119,-4.8195,-4.8143,-4.8168,-4.823,-4.825,-4.8341,-4.8238,-4.8331,-4.8335,-4.8317,-4.8521,-4.8552,-4.8705,-4.8455,-4.8459,-4.8461,0,-4.7748,-4.7809,-4.797,-4.8018,-4.805,-4.8124,-4.8191,-4.8257,-4.8306,-4.8313,-4.836,-4.8344,-4.8437,-4.8364,-4.8491,-4.8421,-4.8459,-4.8474,-4.848,-4.8487,-4.8405,-4.8533,-4.8754,-4.8776,-4.8495,-4.8493,-4.849,0,-4.7884,-4.8008,-4.8119,-4.8149,-4.8208,-4.826,-4.8287,-4.8333,-4.8377,-4.8436,-4.8465,-4.8534,-4.8571,-4.8624,-4.8627,-4.8574,-4.8754,-4.8682,-4.8761,-4.8761,-4.8799,-4.8797,-4.9028,-4.8827,-4.8826,-4.8826,-4.8825,0,-4.807,-4.8169,-4.8181,-4.8249,-4.8358,-4.8355,-4.8463,-4.8485,-4.8525,-4.8595,-4.8571,-4.8637,-4.8638,-4.8705,-4.8707,-4.881,-4.8828,-4.8835,-4.8834,-4.8836,-4.8835,-4.886,-4.8848,-4.8832,-4.8831,-4.8829,-4.8828,0,-4.8241,-4.8254,-4.8372,-4.8418,-4.8432,-4.851,-4.8548,-4.8612,-4.8625,-4.8714,-4.8735,-4.8755,-4.8833,-4.8841,-4.8931,-4.8932,-4.9056,-4.9045,-4.904,-4.9037,-4.9115,-4.9106,-4.9369,-4.9402,-4.9181,-4.9183,-4.9185,0,-4.8359,-4.8434,-4.8487,-4.8533,-4.8563,-4.8637,-4.8682,-4.8682,-4.8729,-4.8791,-4.8847,-4.8922,-4.8981,-4.9106,-4.9128,-4.9196,-4.9184,-4.9272,-4.9194,-4.9193,-4.9183,-4.9178,-4.9184,-4.9286,-4.9289,-4.9291,-4.9292,0,-4.8564,-4.8566,-4.8633,-4.8701,-4.8756,-4.881,-4.886,-4.8898,-4.8904,-4.8959,-4.9037,-4.9084,-4.9175,-4.9249,-4.9315,-4.9341,-4.9317,-4.9317,-4.9338,-4.934,-4.9333,-4.9336,-4.9079,-4.931,-4.9309,-4.9307,-4.9306,-4.9306,-4.8711,-4.8775,-4.8822,-4.8896,-4.8934,-4.8981,-4.9043,-4.9063,-4.9129,-4.9204,-4.9199,-4.9285,-4.9331,-4.9417,-4.9448,-4.9514,-4.9485,-4.9516,-4.9524,-4.9531,-4.9538,-4.9324,-4.9526,-4.9526,-4.9525,-4.9525,-4.9525,0,-4.8913,-4.8941,-4.901,-4.9081,-4.9138,-4.9112,-4.9165,-4.9215,-4.9292,-4.9336,-4.9396,-4.9485,-4.9556,-4.9582,-4.9651,-4.9699,-4.9689,-4.9717,-4.9712,-4.9718,-4.9562,-4.9535,-4.9723,-4.9723,-4.9723,-4.9723,-4.9723,-4.9723,-4.9025,-4.9131,-4.9138,-4.9262,-4.9289,-4.9374,-4.9407,-4.9449,-4.9485,-4.9586,-4.9645,-4.9662,-4.9698,-4.9769,-4.9832,-4.9838,-4.9863,-4.9895,-4.9896,-4.9749,-4.9729,-4.971,-4.9685,-4.9901,-4.9902,-5.0047,-5.0048,-5.0049]}]]